QPF
0.00 0.00 0.00 0.00 0.00 0.00 0.00 0.00 0.00 0.00 0.00 0.00 0.00 0.00 0.00 0.00 0.00 0.00 0.00 0.00 0.00 0.00 0.00 0.00 0.00 0.00 0.00 0.00 0.00 0.00 0.00 0.00 0.00 0.00 0.00 0.00 0.00 0.00 0.00 0.00 0.00 0.00 0.00 0.00 0.00
0.00 0.00 0.00 0.00 0.00 0.00 0.00 0.00 0.00 0.00 0.00 0.00 0.00 0.00 0.00 0.00 0.00 0.00 0.00 0.00 0.00 0.00 0.00 0.00 0.00 0.00 0.00 0.00 0.00 0.00 0.00 0.00 0.00 0.00 0.00 0.00 0.00 0.00 0.00 0.00 0.00 0.00 0.00 0.00 0.00
0.00 0.00 0.00 0.00 0.00 0.00 0.00 0.00 0.00 0.00 0.00 0.00 0.00 0.00 0.00 0.00 0.00 0.00 0.00 0.00 0.00 0.00 0.00 0.00 0.00 0.00 0.00 0.00 0.00 0.00 0.00 0.00 0.00 0.00 0.00 0.00 0.00 0.00 0.00 0.01 0.02 0.01 0.00 0.00 0.00
0.00 0.00 0.00 0.00 0.00 0.00 0.00 0.00 0.00 0.00 0.00 0.00 0.00 0.00 0.00 0.00 0.00 0.00 0.00 0.00 0.00 0.00 0.00 0.00 0.00 0.00 0.00 0.00 0.00 0.00 0.00 0.00 0.00 0.00 0.00 0.00 0.00 0.00 0.00 0.00 0.00 0.03 0.01 0.00 0.00
0.00 0.00 0.00 0.00 0.00 0.00 0.00 0.00 0.00 0.00 0.00 0.00 0.00 0.00 0.00 0.00 0.00 0.00 0.00 0.00 0.00 0.00 0.00 0.00 0.00 0.00 0.00 0.00 0.00 0.00 0.00 0.00 0.00 0.00 0.00 0.00 0.00 0.00 0.00 0.01 0.01 0.03 0.02 0.00 0.00
0.00 0.00 0.00 0.00 0.00 0.00 0.00 0.00 0.00 0.00 0.00 0.00 0.00 0.00 0.00 0.00 0.00 0.00 0.00 0.00 0.00 0.00 0.00 0.00 0.00 0.00 0.00 0.00 0.00 0.00 0.00 0.00 0.00 0.00 0.00 0.00 0.00 0.00 0.00 0.00 0.01 0.00 0.00 0.00 0.00
0.00 0.00 0.00 0.00 0.00 0.00 0.00 0.00 0.00 0.00 0.00 0.00 0.00 0.00 0.00 0.00 0.00 0.00 0.00 0.00 0.00 0.00 0.00 0.00 0.00 0.00 0.00 0.00 0.00 0.00 0.00 0.00 0.00 0.00 0.00 0.00 0.00 0.00 0.00 0.00 0.00 0.00 0.00 0.00 0.00
0.00 0.00 0.00 0.00 0.00 0.00 0.00 0.00 0.00 0.00 0.00 0.00 0.00 0.00 0.00 0.00 0.00 0.00 0.00 0.00 0.00 0.00 0.00 0.00 0.00 0.00 0.00 0.00 0.00 0.00 0.00 0.00 0.00 0.00 0.00 0.00 0.00 0.00 0.00 0.00 0.00 0.00 0.00 0.00 0.00
0.00 0.00 0.00 0.00 0.00 0.00 0.00 0.00 0.00 0.00 0.00 0.00 0.00 0.00 0.00 0.00 0.00 0.00 0.00 0.00 0.00 0.00 0.00 0.00 0.00 0.00 0.00 0.00 0.00 0.00 0.00 0.00 0.00 0.00 0.00 0.00 0.00 0.00 0.00 0.00 0.00 0.00 0.00 0.00 0.00
0.00 0.00 0.00 0.00 0.00 0.00 0.00 0.00 0.00 0.00 0.00 0.00 0.00 0.00 0.00 0.00 0.00 0.00 0.00 0.00 0.00 0.00 0.00 0.00 0.00 0.00 0.00 0.00 0.00 0.00 0.00 0.00 0.00 0.00 0.00 0.00 0.00 0.00 0.00 0.00 0.00 0.00 0.00 0.00 0.00
0.00 0.00 0.00 0.00 0.00 0.00 0.00 0.00 0.00 0.00 0.00 0.00 0.00 0.00 0.00 0.00 0.00 0.00 0.00 0.00 0.00 0.00 0.00 0.00 0.00 0.00 0.00 0.00 0.00 0.00 0.00 0.00 0.00 0.00 0.00 0.00 0.00 0.00 0.00 0.00 0.00 0.00 0.00 0.00 0.00
0.00 0.00 0.00 0.00 0.00 0.00 0.00 0.00 0.00 0.00 0.00 0.00 0.00 0.00 0.00 0.00 0.00 0.00 0.00 0.00 0.00 0.00 0.00 0.00 0.00 0.00 0.00 0.00 0.00 0.00 0.00 0.00 0.00 0.00 0.00 0.00 0.00 0.00 0.00 0.00 0.00 0.00 0.00 0.00 0.00
0.00 0.00 0.00 0.00 0.00 0.00 0.00 0.00 0.00 0.00 0.00 0.00 0.00 0.00 0.00 0.00 0.00 0.00 0.00 0.00 0.00 0.00 0.00 0.00 0.00 0.00 0.00 0.00 0.00 0.00 0.00 0.00 0.00 0.00 0.00 0.00 0.00 0.00 0.00 0.00 0.00 0.00 0.00 0.00 0.00
0.00 0.00 0.00 0.00 0.00 0.00 0.00 0.00 0.00 0.00 0.00 0.00 0.00 0.00 0.00 0.00 0.00 0.00 0.00 0.00 0.00 0.00 0.00 0.00 0.00 0.00 0.00 0.00 0.00 0.00 0.00 0.00 0.00 0.00 0.00 0.00 0.00 0.00 0.00 0.00 0.00 0.00 0.00 0.00 0.00
0.00 0.00 0.00 0.00 0.00 0.00 0.00 0.00 0.00 0.00 0.00 0.00 0.00 0.00 0.00 0.00 0.00 0.00 0.00 0.00 0.00 0.00 0.00 0.00 0.00 0.00 0.00 0.00 0.00 0.00 0.00 0.00 0.00 0.00 0.00 0.00 0.00 0.00 0.00 0.00 0.00 0.00 0.00 0.00 0.00
0.00 0.00 0.00 0.00 0.00 0.00 0.00 0.00 0.00 0.00 0.00 0.00 0.00 0.00 0.00 0.00 0.00 0.00 0.00 0.00 0.00 0.00 0.00 0.00 0.00 0.00 0.00 0.00 0.00 0.00 0.00 0.00 0.00 0.00 0.00 0.00 0.00 0.00 0.00 0.00 0.00 0.00 0.00 0.00 0.00
0.00 0.00 0.00 0.00 0.00 0.00 0.00 0.00 0.00 0.00 0.00 0.00 0.00 0.00 0.00 0.00 0.00 0.00 0.00 0.00 0.00 0.00 0.00 0.00 0.00 0.00 0.00 0.00 0.00 0.00 0.00 0.00 0.00 0.00 0.00 0.00 0.00 0.00 0.00 0.00 0.00 0.00 0.00 0.00 0.00
0.00 0.00 0.00 0.00 0.00 0.00 0.00 0.00 0.00 0.00 0.00 0.00 0.00 0.00 0.00 0.00 0.00 0.00 0.00 0.00 0.00 0.00 0.00 0.00 0.00 0.00 0.00 0.00 0.00 0.00 0.00 0.00 0.00 0.00 0.00 0.00 0.00 0.00 0.00 0.00 0.00 0.00 0.00 0.00 0.00
0.00 0.00 0.00 0.00 0.00 0.00 0.00 0.00 0.00 0.00 0.00 0.00 0.00 0.00 0.00 0.00 0.00 0.00 0.00 0.00 0.00 0.00 0.00 0.00 0.00 0.00 0.00 0.00 0.00 0.00 0.00 0.00 0.00 0.00 0.00 0.00 0.00 0.00 0.00 0.00 0.00 0.00 0.00 0.00 0.00
0.00 0.00 0.00 0.00 0.00 0.00 0.00 0.00 0.00 0.00 0.00 0.00 0.00 0.00 0.00 0.00 0.00 0.00 0.00 0.00 0.00 0.00 0.00 0.00 0.00 0.00 0.00 0.00 0.00 0.00 0.00 0.00 0.00 0.00 0.00 0.00 0.00 0.00 0.00 0.00 0.00 0.00 0.00 0.00 0.00
0.00 0.00 0.00 0.00 0.00 0.00 0.00 0.00 0.00 0.00 0.00 0.00 0.00 0.00 0.00 0.00 0.00 0.00 0.00 0.00 0.00 0.00 0.00 0.00 0.00 0.00 0.00 0.00 0.00 0.00 0.00 0.00 0.00 0.00 0.00 0.00 0.00 0.00 0.00 0.00 0.00 0.00 0.00 0.00 0.00
0.00 0.00 0.00 0.00 0.00 0.00 0.00 0.00 0.00 0.00 0.00 0.00 0.00 0.00 0.00 0.00 0.00 0.00 0.00 0.00 0.00 0.00 0.00 0.00 0.00 0.00 0.00 0.00 0.00 0.00 0.00 0.00 0.00 0.00 0.00 0.00 0.00 0.00 0.00 0.00 0.00 0.00 0.00 0.00 0.00
0.00 0.00 0.00 0.00 0.00 0.00 0.00 0.00 0.00 0.00 0.00 0.00 0.00 0.00 0.00 0.00 0.00 0.00 0.00 0.00 0.00 0.00 0.00 0.00 0.00 0.00 0.00 0.00 0.00 0.00 0.00 0.00 0.00 0.00 0.00 0.00 0.00 0.00 0.00 0.00 0.00 0.00 0.00 0.00 0.00
0.00 0.00 0.00 0.00 0.00 0.00 0.00 0.00 0.00 0.00 0.00 0.00 0.00 0.00 0.00 0.00 0.00 0.00 0.00 0.00 0.00 0.00 0.00 0.00 0.00 0.00 0.00 0.00 0.00 0.00 0.00 0.00 0.00 0.00 0.00 0.00 0.00 0.00 0.00 0.00 0.00 0.00 0.00 0.00 0.00
0.00 0.00 0.00 0.00 0.00 0.00 0.00 0.00 0.00 0.00 0.00 0.00 0.00 0.00 0.00 0.00 0.00 0.00 0.00 0.00 0.00 0.00 0.00 0.00 0.00 0.00 0.00 0.00 0.00 0.00 0.00 0.00 0.00 0.00 0.00 0.00 0.00 0.00 0.00 0.00 0.00 0.00 0.00 0.00 0.00
0.00 0.00 0.00 0.00 0.00 0.00 0.00 0.00 0.00 0.00 0.00 0.00 0.00 0.00 0.00 0.00 0.00 0.00 0.00 0.00 0.00 0.00 0.00 0.00 0.00 0.00 0.00 0.00 0.00 0.00 0.00 0.00 0.00 0.00 0.00 0.00 0.00 0.00 0.00 0.00 0.00 0.00 0.00 0.00 0.00
0.00 0.00 0.00 0.00 0.00 0.00 0.00 0.00 0.00 0.00 0.00 0.00 0.00 0.00 0.00 0.00 0.00 0.00 0.00 0.00 0.00 0.00 0.00 0.00 0.00 0.00 0.00 0.00 0.00 0.00 0.00 0.00 0.00 0.00 0.00 0.00 0.00 0.00 0.00 0.00 0.00 0.00 0.00 0.00 0.00
MSLP
1020.93 1020.53 1020.22 1019.86 1019.48 1019.07 1018.64 1018.17 1017.83 1017.42 1016.98 1016.47 1016.10 1015.88 1015.65 1015.40 1014.87 1014.31 1012.03 1009.95 1009.59 1009.88 1010.13 1009.38 1008.98 1008.44 1007.80 1007.00 1006.17 1005.29 1004.57 1003.39 1002.07 1003.22 1005.29 1005.73 1004.35 1004.67 1004.34 1004.63 1003.74 1003.63 1004.32 1005.71 1006.87
1021.17 1020.75 1020.35 1019.97 1019.53 1019.11 1018.68 1018.19 1017.75 1017.33 1016.83 1016.38 1016.05 1015.84 1015.61 1015.42 1014.24 1011.93 1009.35 1009.44 1009.51 1009.80 1009.58 1008.89 1007.85 1007.54 1006.96 1006.25 1005.46 1004.73 1003.92 1002.53 1002.20 1002.51 1003.96 1004.15 1005.62 1007.05 1003.76 1004.75 1004.17 1004.47 1005.10 1006.11 1006.76
1021.41 1021.00 1020.55 1020.03 1019.52 1018.96 1018.53 1018.05 1017.55 1017.05 1016.57 1016.23 1015.93 1015.76 1015.56 1015.23 1013.04 1008.82 1008.01 1008.69 1009.14 1009.52 1009.17 1008.16 1007.25 1006.72 1006.16 1005.56 1004.67 1003.90 1003.15 1002.42 1002.02 1001.70 1001.77 1002.84 1002.82 1004.49 1006.96 1008.16 1008.95 1008.46 1005.56 1006.17 1006.34
1021.60 1021.08 1020.56 1020.05 1019.46 1018.88 1018.36 1017.81 1017.30 1016.79 1016.33 1015.97 1015.67 1015.56 1015.37 1014.51 1010.60 1008.04 1008.47 1008.82 1009.12 1009.03 1008.94 1008.01 1006.83 1006.11 1005.51 1004.91 1004.12 1003.27 1002.69 1002.28 1001.70 1001.55 1001.83 1001.78 1001.57 1003.66 1006.62 1008.39 1008.49 1009.88 1007.92 1006.13 1005.98
1021.66 1021.12 1020.57 1020.01 1019.36 1018.70 1018.12 1017.52 1017.00 1016.50 1016.04 1015.71 1015.43 1015.42 1015.18 1012.52 1008.62 1008.35 1008.61 1008.82 1008.90 1008.97 1008.33 1007.26 1006.44 1005.89 1005.09 1004.45 1003.54 1002.89 1002.43 1002.01 1001.47 1001.35 1001.86 1001.78 1001.73 1002.44 1005.88 1004.76 1005.70 1007.73 1007.16 1005.67 1005.83
1021.60 1021.09 1020.52 1019.86 1019.16 1018.45 1017.81 1017.20 1016.62 1016.10 1015.62 1015.24 1015.13 1015.34 1013.94 1010.26 1006.36 1007.24 1007.63 1008.23 1007.94 1008.20 1007.60 1006.67 1005.80 1005.25 1004.61 1003.78 1003.03 1002.55 1002.27 1002.10 1001.58 1001.27 1001.38 1001.79 1001.93 1002.52 1006.33 1006.74 1006.72 1006.27 1006.06 1004.89 1004.99
1021.62 1021.09 1020.37 1019.63 1018.86 1018.13 1017.40 1016.77 1016.13 1015.58 1015.12 1014.70 1014.75 1014.43 1011.91 1008.35 1006.10 1006.17 1006.65 1007.46 1007.39 1007.38 1006.70 1006.10 1005.55 1004.93 1004.71 1003.89 1003.07 1002.58 1002.30 1002.04 1001.78 1001.44 1001.31 1001.38 1001.62 1002.07 1003.03 1004.02 1005.51 1003.62 1003.53 1003.72 1004.23
1021.67 1021.03 1020.28 1019.45 1018.60 1017.75 1016.95 1016.25 1015.60 1015.03 1014.65 1014.41 1014.56 1013.72 1010.11 1006.98 1006.54 1006.26 1006.29 1006.72 1006.88 1006.60 1006.34 1005.72 1005.50 1005.23 1004.84 1004.08 1003.18 1002.84 1002.54 1001.95 1001.24 1001.22 1001.27 1001.55 1001.24 1001.46 1001.64 1002.34 1003.22 1002.55 1002.64 1002.96 1003.38
1021.63 1020.97 1020.23 1019.32 1018.32 1017.39 1016.48 1015.59 1014.95 1014.42 1014.26 1014.30 1014.14 1012.44 1008.45 1006.47 1006.05 1005.72 1005.83 1006.01 1006.25 1006.17 1006.14 1005.80 1005.56 1005.62 1005.10 1004.32 1003.37 1002.78 1002.17 1001.35 1000.47 1000.38 1000.84 1001.25 1001.27 1000.68 1000.51 1001.05 1001.47 1001.68 1002.22 1002.43 1003.30
1021.59 1020.85 1020.04 1019.08 1018.02 1017.16 1016.08 1014.41 1013.87 1014.03 1013.74 1013.17 1011.82 1010.68 1007.00 1005.48 1005.25 1005.59 1005.56 1005.58 1005.76 1006.14 1006.20 1006.31 1006.11 1005.61 1004.86 1003.79 1002.81 1001.68 1001.28 1000.74 999.92 1000.15 1000.59 1000.94 1000.96 1000.57 999.77 1000.31 1000.81 1001.24 1001.80 1002.34 1003.23
1021.64 1020.83 1019.87 1018.82 1017.70 1016.98 1015.89 1013.04 1013.41 1012.84 1011.89 1009.63 1008.07 1006.99 1004.94 1005.06 1004.11 1004.99 1005.23 1005.48 1005.61 1006.04 1005.84 1005.82 1005.58 1004.50 1003.86 1003.29 1002.46 1001.46 1001.06 1000.12 999.69 999.52 1000.21 1000.60 1000.60 1000.48 1000.03 1000.26 1000.68 1001.20 1002.15 1003.44 1005.04
1021.73 1020.86 1019.74 1018.56 1017.37 1016.32 1016.16 1013.24 1011.83 1011.52 1009.90 1008.09 1007.18 1006.24 1005.10 1004.53 1004.84 1004.81 1004.75 1005.24 1005.20 1005.28 1005.55 1005.17 1004.55 1003.92 1003.28 1002.71 1002.23 1001.86 1001.51 1000.81 999.95 999.57 1000.25 1000.71 1000.67 1000.25 999.97 1000.12 1000.44 1001.48 1003.01 1005.06 1007.55
1021.62 1020.88 1019.78 1018.31 1016.93 1015.55 1013.48 1012.01 1011.43 1010.77 1009.56 1006.00 1004.82 1004.56 1004.42 1004.52 1004.26 1004.24 1004.49 1004.66 1004.63 1004.89 1004.55 1004.19 1003.36 1003.14 1002.93 1002.36 1002.28 1002.42 1002.22 1001.67 1001.04 1000.28 1000.47 1001.22 1001.33 1000.83 1000.23 1000.31 1000.83 1001.82 1003.55 1005.58 1008.00
1021.54 1020.89 1020.03 1018.44 1016.66 1014.62 1012.62 1011.96 1011.39 1011.15 1009.06 1004.09 1002.63 1002.53 1003.33 1003.84 1003.87 1003.60 1003.83 1004.27 1004.17 1004.05 1004.02 1003.51 1003.02 1002.28 1002.27 1002.21 1002.46 1002.51 1002.36 1002.11 1001.65 1001.20 1000.63 1000.75 1000.56 1000.09 1000.01 1000.16 1001.20 1002.50 1004.23 1006.40 1007.37
1021.53 1020.90 1020.22 1020.01 1018.28 1014.62 1012.75 1012.44 1011.85 1011.33 1007.29 1001.93 1001.51 1001.17 1001.82 1002.67 1002.18 1003.01 1003.18 1003.84 1003.51 1003.14 1003.26 1002.56 1002.27 1001.81 1001.88 1002.17 1002.41 1002.50 1002.24 1002.02 1001.89 1001.84 1001.55 1000.92 1000.43 999.58 999.24 1000.39 1001.84 1003.64 1005.56 1007.22 1008.12
1021.36 1020.79 1020.44 1017.60 1017.03 1014.80 1013.27 1012.54 1012.05 1010.37 1005.22 1001.93 1001.52 1001.64 1001.52 1001.96 1002.42 1001.89 1002.87 1003.39 1003.63 1003.24 1002.46 1002.08 1001.50 1001.23 1001.48 1001.81 1002.26 1002.40 1002.43 1002.75 1002.40 1002.35 1001.90 1001.47 1000.93 999.79 999.64 1000.47 1002.43 1004.72 1006.36 1007.79 1008.68
1021.09 1020.31 1020.31 1019.19 1015.33 1014.14 1013.83 1012.72 1011.03 1007.69 1003.22 1001.55 1001.16 1001.33 1001.38 1001.36 1001.96 1001.83 1002.41 1002.57 1002.75 1002.80 1002.06 1001.64 1001.18 1000.67 1001.06 1001.35 1001.94 1002.31 1002.52 1002.94 1002.82 1002.35 1001.62 1001.19 1000.86 1000.11 1000.01 1001.18 1002.93 1004.91 1006.65 1007.91 1008.96
1020.53 1019.35 1017.62 1016.35 1014.87 1014.44 1013.77 1012.57 1009.61 1005.68 1003.64 1001.99 1001.10 1000.82 1000.89 1000.94 1001.33 1001.55 1001.48 1001.93 1002.35 1002.13 1001.62 1001.24 1000.61 1000.48 1000.63 1001.39 1001.38 1001.70 1002.33 1002.44 1001.87 1001.32 1001.06 1000.81 1000.16 999.83 1000.68 1001.94 1003.34 1004.91 1006.33 1007.69 1008.82
1020.11 1016.85 1014.94 1014.00 1014.22 1014.23 1013.66 1011.03 1007.59 1005.92 1003.81 1002.21 1001.57 1001.31 1000.40 1000.41 1000.48 1000.93 1000.51 1001.00 1001.16 1001.68 1001.26 1000.61 999.95 999.75 1000.17 1000.56 1001.21 1001.18 1001.91 1002.31 1002.10 1001.58 1001.36 1001.09 1000.88 1001.53 1002.26 1003.05 1003.92 1005.25 1006.44 1007.19 1008.46
1020.20 1016.81 1013.40 1012.42 1012.69 1013.55 1012.72 1009.57 1007.38 1006.16 1004.29 1003.59 1002.58 1001.67 1000.72 999.98 999.93 999.87 1000.04 1000.12 1000.33 1000.47 1001.12 1000.61 1000.09 999.19 999.03 999.84 1000.65 1000.44 1001.11 1001.66 1001.98 1001.95 1001.72 1000.73 1000.63 1001.04 1001.93 1003.22 1004.22 1005.45 1006.36 1007.18 1008.55
1019.72 1015.29 1011.70 1011.69 1013.25 1012.93 1010.74 1009.06 1008.06 1006.79 1005.64 1004.49 1003.70 1002.82 1001.66 1000.39 999.45 999.18 999.07 999.26 999.27 999.79 1000.09 1000.66 1000.40 999.69 998.90 999.09 999.88 1000.63 1000.84 1001.01 1001.43 1001.76 1001.89 1001.50 1001.37 1001.51 1001.99 1002.89 1003.57 1004.58 1005.98 1007.54 1008.63
1018.04 1014.34 1012.13 1012.29 1012.77 1011.37 1009.91 1009.23 1008.25 1006.56 1005.33 1004.49 1003.88 1003.43 1002.89 1001.81 1000.25 998.90 998.22 998.11 998.19 998.72 999.02 999.83 1000.15 1000.05 999.31 998.99 999.53 999.93 1000.22 1000.87 1001.19 1001.80 1001.70 1001.74 1001.72 1001.45 1001.69 1002.19 1003.08 1003.86 1004.80 1006.78 1008.21
1017.56 1013.95 1012.08 1012.50 1011.66 1010.48 1009.63 1008.34 1007.38 1006.61 1005.50 1004.66 1003.63 1003.89 1003.73 1002.70 1001.62 999.73 998.42 997.60 997.64 998.00 998.67 999.40 999.92 1000.33 1000.19 999.40 999.30 999.73 1000.05 1000.21 1001.10 1001.68 1001.69 1001.80 1001.42 1001.58 1001.88 1002.24 1002.93 1003.60 1004.51 1006.40 1007.82
1018.28 1013.85 1011.63 1011.95 1011.69 1011.03 1009.95 1008.34 1006.88 1005.97 1005.18 1004.69 1003.97 1003.58 1003.36 1002.91 1002.06 1000.80 999.48 998.20 997.69 997.97 998.81 999.44 999.82 1000.17 1000.09 999.46 999.20 999.62 999.77 999.81 1000.30 1001.04 1001.51 1001.57 1001.58 1001.94 1002.73 1003.51 1004.40 1003.73 1004.16 1006.29 1008.02
1018.26 1014.43 1012.25 1011.29 1010.76 1010.36 1010.14 1009.23 1007.70 1006.14 1004.92 1004.55 1003.87 1003.26 1003.08 1002.80 1002.12 1000.88 1000.08 999.07 998.06 998.30 998.96 999.84 999.88 1000.26 1000.49 1000.09 999.55 999.35 999.55 999.63 999.76 1000.21 1000.77 1001.21 1001.67 1002.54 1003.68 1004.78 1005.34 1007.97 1004.92 1006.49 1008.19
1018.27 1015.18 1013.64 1012.87 1011.94 1011.11 1010.27 1009.34 1008.09 1007.25 1006.07 1004.39 1003.80 1003.43 1003.14 1002.30 1001.64 1000.97 1000.27 999.50 998.92 998.86 999.17 999.80 1000.09 1000.64 1000.40 1000.17 999.71 999.00 998.78 999.02 999.17 999.60 1000.08 1000.85 1001.28 1001.78 1003.60 1004.72 1006.09 1006.08 1005.15 1006.51 1007.89
1017.94 1016.79 1016.03 1014.11 1012.69 1011.43 1010.19 1009.28 1008.65 1008.16 1006.54 1005.44 1004.02 1003.54 1002.96 1001.77 1001.71 1001.06 1000.42 999.97 999.85 999.62 999.58 999.70 1000.08 1000.63 1000.22 1000.34 999.87 998.66 998.03 997.83 998.51 998.71 999.21 1000.07 1002.24 1003.33 1004.10 1004.98 1004.91 1005.29 1005.58 1006.46 1007.66
Thickness
5703 5708 5711 5715 5719 5724 5728 5732 5735 5739 5743 5747 5750 5753 5755 5759 5765 5772 5780 5805 5811 5811 5810 5814 5813 5817 5824 5820 5834 5843 5808 5810 5836 5833 5808 5824 5847 5840 5851 5838 5856 5857 5845 5840 5839
5699 5703 5708 5712 5716 5721 5725 5730 5734 5738 5743 5747 5750 5752 5755 5757 5768 5780 5810 5811 5812 5811 5807 5804 5805 5813 5808 5815 5826 5822 5809 5823 5853 5855 5823 5835 5824 5792 5857 5844 5845 5845 5849 5842 5837
5694 5698 5703 5708 5714 5719 5723 5728 5733 5738 5743 5746 5749 5752 5754 5757 5769 5800 5820 5816 5814 5812 5813 5817 5820 5815 5803 5817 5823 5828 5814 5840 5851 5863 5866 5849 5861 5839 5795 5781 5789 5782 5836 5835 5833
5689 5695 5700 5705 5711 5717 5722 5727 5732 5737 5742 5746 5750 5752 5754 5762 5762 5813 5816 5814 5813 5813 5809 5809 5812 5803 5800 5799 5827 5814 5838 5845 5855 5858 5853 5854 5874 5845 5812 5795 5805 5771 5807 5835 5831
5685 5690 5696 5702 5708 5715 5720 5726 5731 5736 5741 5745 5749 5751 5756 5765 5785 5812 5813 5812 5812 5809 5804 5806 5803 5803 5796 5810 5823 5820 5833 5846 5858 5857 5850 5858 5855 5860 5813 5843 5835 5813 5818 5837 5832
5682 5686 5692 5699 5706 5713 5719 5726 5731 5737 5741 5745 5747 5748 5758 5758 5826 5818 5818 5813 5814 5808 5808 5814 5811 5820 5811 5816 5820 5835 5836 5837 5848 5850 5850 5838 5844 5854 5811 5806 5809 5821 5819 5838 5837
5677 5683 5689 5696 5704 5711 5719 5725 5732 5737 5742 5746 5747 5751 5763 5777 5825 5825 5823 5813 5818 5814 5807 5821 5825 5816 5817 5809 5835 5834 5818 5829 5836 5841 5838 5849 5828 5834 5850 5837 5813 5856 5852 5846 5841
5674 5679 5686 5694 5702 5710 5717 5725 5732 5738 5742 5745 5745 5751 5761 5811 5817 5818 5822 5814 5820 5823 5820 5828 5829 5816 5811 5825 5823 5813 5817 5797 5832 5838 5841 5836 5806 5842 5867 5857 5839 5856 5852 5848 5845
5670 5676 5683 5691 5700 5708 5717 5725 5733 5738 5740 5742 5745 5752 5763 5813 5802 5817 5821 5807 5813 5818 5820 5825 5819 5801 5806 5793 5792 5805 5786 5802 5822 5850 5840 5830 5811 5847 5873 5861 5854 5857 5853 5849 5845
5665 5673 5680 5688 5698 5706 5715 5730 5734 5736 5740 5745 5756 5750 5784 5787 5806 5810 5819 5816 5804 5801 5797 5795 5791 5782 5790 5790 5766 5795 5803 5817 5824 5839 5837 5825 5823 5842 5868 5861 5854 5855 5856 5857 5845
5659 5667 5677 5686 5696 5703 5712 5736 5733 5732 5740 5753 5767 5772 5795 5804 5822 5804 5812 5803 5801 5789 5770 5786 5769 5769 5787 5801 5811 5819 5817 5824 5841 5858 5834 5826 5828 5837 5857 5856 5850 5851 5850 5845 5824
5651 5660 5673 5684 5695 5704 5704 5724 5730 5734 5730 5763 5771 5779 5796 5806 5780 5794 5813 5784 5783 5767 5777 5773 5764 5793 5807 5811 5811 5809 5802 5808 5838 5855 5834 5826 5821 5843 5855 5853 5853 5847 5836 5822 5794
5644 5652 5664 5679 5692 5705 5720 5727 5735 5741 5724 5761 5781 5780 5785 5793 5780 5785 5799 5790 5778 5768 5774 5767 5788 5804 5800 5801 5794 5794 5789 5798 5805 5835 5835 5816 5801 5817 5842 5851 5849 5844 5837 5820 5790
5636 5644 5654 5670 5687 5703 5714 5725 5731 5733 5707 5758 5776 5786 5788 5790 5773 5805 5807 5790 5780 5770 5777 5779 5799 5798 5794 5790 5795 5774 5807 5805 5804 5803 5788 5825 5774 5814 5831 5834 5833 5829 5825 5812 5801
5629 5636 5644 5648 5664 5691 5709 5714 5722 5719 5689 5774 5779 5813 5799 5779 5793 5787 5810 5789 5773 5780 5782 5778 5787 5789 5782 5788 5798 5784 5809 5804 5802 5792 5794 5801 5792 5815 5839 5816 5812 5805 5806 5799 5799
5624 5630 5634 5656 5663 5681 5697 5706 5707 5685 5691 5753 5774 5770 5771 5779 5778 5795 5785 5795 5791 5777 5788 5787 5812 5804 5797 5802 5800 5805 5795 5791 5795 5787 5758 5787 5788 5803 5811 5814 5799 5794 5792 5788 5786
5621 5628 5629 5636 5668 5678 5684 5687 5674 5679 5761 5752 5757 5768 5765 5764 5765 5773 5766 5764 5756 5744 5754 5780 5787 5808 5808 5787 5797 5792 5776 5742 5740 5748 5750 5799 5788 5804 5823 5813 5799 5788 5785 5780 5778
5618 5629 5643 5652 5664 5669 5673 5666 5658 5716 5731 5761 5764 5767 5753 5766 5762 5764 5762 5752 5768 5768 5762 5751 5750 5789 5801 5786 5779 5780 5775 5750 5733 5752 5773 5807 5785 5806 5821 5815 5804 5798 5789 5780 5772
5613 5638 5654 5662 5661 5663 5656 5655 5683 5705 5734 5740 5748 5739 5753 5765 5766 5759 5762 5757 5770 5772 5753 5756 5762 5805 5800 5800 5792 5778 5761 5789 5765 5782 5768 5782 5790 5800 5799 5796 5795 5784 5776 5774 5769
5601 5626 5652 5665 5664 5653 5648 5661 5688 5709 5725 5726 5711 5738 5736 5757 5756 5758 5756 5772 5768 5781 5782 5771 5751 5799 5807 5804 5795 5789 5800 5760 5766 5732 5730 5778 5776 5771 5778 5775 5779 5772 5769 5768 5762
5594 5626 5655 5660 5647 5640 5645 5664 5677 5697 5704 5703 5705 5713 5731 5744 5765 5761 5760 5774 5781 5777 5785 5774 5762 5771 5800 5781 5772 5773 5767 5777 5778 5772 5740 5742 5761 5787 5782 5780 5777 5775 5769 5760 5754
5595 5611 5640 5642 5623 5639 5644 5656 5668 5684 5701 5702 5707 5711 5712 5725 5736 5758 5760 5771 5794 5787 5767 5777 5763 5745 5767 5802 5801 5789 5778 5776 5751 5746 5765 5761 5754 5802 5794 5792 5784 5780 5772 5763 5756
5582 5607 5627 5623 5612 5628 5641 5654 5666 5670 5682 5687 5696 5701 5707 5708 5708 5739 5758 5788 5796 5783 5770 5776 5751 5729 5741 5772 5788 5769 5778 5784 5773 5765 5747 5737 5753 5802 5795 5792 5788 5780 5769 5756 5752
5563 5590 5609 5608 5611 5610 5616 5634 5648 5672 5675 5683 5686 5697 5695 5694 5713 5717 5735 5766 5787 5781 5773 5774 5755 5739 5727 5753 5775 5759 5769 5780 5772 5742 5745 5749 5761 5777 5775 5769 5762 5776 5764 5751 5743
5549 5573 5590 5590 5600 5607 5608 5614 5624 5641 5668 5674 5672 5682 5682 5677 5691 5706 5728 5747 5771 5761 5764 5756 5736 5746 5752 5761 5768 5767 5764 5769 5763 5765 5746 5759 5758 5761 5756 5742 5739 5707 5751 5744 5733
5531 5554 5567 5569 5577 5582 5587 5597 5608 5621 5635 5651 5657 5670 5673 5674 5690 5695 5716 5731 5739 5751 5748 5754 5731 5740 5735 5755 5760 5758 5772 5768 5767 5768 5766 5764 5761 5776 5760 5757 5740 5737 5749 5732 5724
5520 5528 5528 5543 5555 5564 5576 5586 5592 5601 5623 5638 5652 5655 5657 5681 5693 5708 5720 5728 5728 5723 5731 5738 5734 5724 5715 5742 5746 5738 5764 5776 5771 5779 5776 5755 5740 5745 5738 5743 5750 5751 5748 5734 5724